This demonstration page uses our WeatherBlox Daily Observations layout. Learn more.

Left ArrowRight Arrow

34.74481, -87.66753

Hourly Observations for May 30, 2017

Temp ( °F °C ) Dew Point ( °F °C ) Humidity (%) Winds ( mph kmh ) Pressure ( in mb ) Visibility ( mi km ) Precip ( " mm )
12:04 am 00:04 Clear 66 18.9 64 17.8 93 93 Calm 30.03 1017 7 11 0.00 0.00
12:18 am 00:18 Clear with Mist and Fog 65 18.3 63 17.2 93 93 Calm 30.03 1017 2 3 0.00 0.00
12:29 am 00:29 Clear with Mist and Fog 65 18.3 63 17.2 93 93 Calm 30.03 1017 1 1 0.00 0.00
12:36 am 00:36 Clear with Mist and Fog 66 18.9 64 17.8 93 93 Calm 30.03 1017 2 3 0.00 0.00
12:46 am 00:46 Clear with Mist and Fog 65 18.3 63 17.2 93 93 Calm 30.03 1017 1 1 0.00 0.00
12:53 am 00:53 Clear with Fog 64 17.8 62 16.7 93 93 Calm 30.06 1018 1 1 0.00 0.00
1:15 am 01:15 Clear with Mist and Fog 65 18.3 63 17.2 93 93 Calm 30.03 1017 1 2 0.00 0.00
1:29 am 01:29 Clear with Mist and Fog 65 18.3 63 17.2 93 93 Calm 30.03 1017 3 5 0.00 0.00
1:38 am 01:38 Clear with Mist and Fog 65 18.3 63 17.2 93 93 Calm 30.03 1017 2 3 0.00 0.00
1:51 am 01:51 Clear with Mist and Fog 64 18 63 17 94 94 Calm 30.03 1017 1 1 0.00 0.00
1:53 am 01:53 Clear with Mist and Fog 65 18.3 63 17.2 93 93 Calm 30.05 1018 1 1 0.00 0.00
2:02 am 02:02 Clear with Mist and Fog 65 18.3 63 17.2 93 93 Calm 30.03 1017 2 2 0.00 0.00
2:21 am 02:21 Mostly Clear with Mist and Fog 65 18.3 63 17.2 93 93 Calm 30.03 1017 2 3 0.00 0.00
2:53 am 02:53 Mostly Clear 66 18.9 64 17.8 93 93 Calm 30.05 1018 8 13 0.00 0.00
3:37 am 03:37 Clear with Mist and Fog 64 17.8 61 16.1 90 90 Calm 30.03 1017 2 3 0.00 0.00
3:53 am 03:53 Clear with Mist and Fog 64 17.8 62 16.7 93 93 Calm 30.05 1018 1 2 0.00 0.00
3:59 am 03:59 Mostly Cloudy with Mist and Fog 64 17.8 62 16.7 93 93 Calm 30.03 1017 1 1 0.00 0.00
4:14 am 04:14 Mostly Cloudy with Mist and Fog 63 17.2 61 16.1 93 93 Calm 30.03 1017 1 1 0.00 0.00
4:19 am 04:19 Mostly Cloudy with Mist and Fog 63 17.2 61 16.1 93 93 Calm 30.03 1017 2 3 0.00 0.00
4:30 am 04:30 Mostly Cloudy with Mist and Fog 63 17.2 61 16.1 93 93 Calm 30.03 1017 1 1 0.00 0.00
4:53 am 04:53 Mostly Cloudy with Mist and Fog 62 16.7 60 15.6 93 93 Calm 30.06 1018 1 1 0.00 0.00
5:04 am 05:04 Cloudy with Mist and Fog 62 16.7 60 15.6 93 93 Calm 30.06 1018 1 2 0.00 0.00
5:28 am 05:28 Mostly Cloudy with Mist and Fog 63 17.2 61 16.1 93 93 Calm 30.06 1018 1 1 0.00 0.00
5:53 am 05:53 Mostly Cloudy with Fog 63 17.2 61 16.1 93 93 Calm 30.08 1019 0 0 0.00 0.00
6:28 am 06:28 Mostly Cloudy with Fog 64 17.8 62 16.7 93 93 Calm 30.09 1019 1 1 0.00 0.00
6:37 am 06:37 Mostly Cloudy with Fog 64 17.8 63 17.2 96 96 Calm 30.09 1019 0 0 0.00 0.00
6:53 am 06:53 Mostly Cloudy with Fog 65 18.3 63 17.2 93 93 Calm 30.10 1019 0 0 0.00 0.00
7:31 am 07:31 Mostly Cloudy with Mist and Fog 66 18.9 65 18.3 96 96 Calm 30.09 1019 1 1 0.00 0.00
7:38 am 07:38 Cloudy with Mist and Fog 66 18.9 65 18.3 96 96 Calm 30.09 1019 1 2 0.00 0.00
7:49 am 07:49 Cloudy with Mist and Fog 66 19 66 19 100 100 Calm 30.09 1019 3 5 0.00 0.00
7:53 am 07:53 Cloudy with Mist and Fog 67 19.4 66 18.9 97 97 Calm 30.11 1020 2 3 0.00 0.00
8:06 am 08:06 Mostly Cloudy with Fog 68 20 66 18.9 93 93 Calm 30.09 1019 1 1 0.00 0.00
8:40 am 08:40 Cloudy with Mist and Fog 69 20.6 68 20 96 96 ENE 3 6 30.12 1020 2 3 0.00 0.00
8:48 am 08:48 Cloudy 70 21 66 19 88 88 VRB 3 6 30.12 1020 7 11 0.00 0.00
8:53 am 08:53 Cloudy 70 21.1 68 20 93 93 Calm 30.13 1020 9 14 0.00 0.00
9:24 am 09:24 Cloudy 71 21.7 68 20 90 90 VRB 3 6 30.12 1020 10 16 0.00 0.00
9:53 am 09:53 Partly Cloudy 76 24.4 68 20 77 77 WNW 3 6 30.13 1020 10 16 0.00 0.00
10:53 am 10:53 Sunny 82 27.8 66 18.9 58 58 WNW 3 6 30.11 1020 10 16 0.00 0.00
11:53 am 11:53 Sunny 84 28.9 60 15.6 44 44 VRB 3 6 30.11 1020 10 16 0.00 0.00
12:53 pm 12:53 Sunny 85 29.4 58 14.4 40 40 VRB 3 6 30.09 1019 10 16 0.00 0.00
1:53 pm 13:53 Sunny 84 28.9 59 15 43 43 Calm 30.07 1018 10 16 0.00 0.00
2:53 pm 14:53 Sunny 85 29.4 58 14.4 40 40 VRB 3 6 30.06 1018 10 16 0.00 0.00
3:53 pm 15:53 Sunny 85 29.4 57 13.9 39 39 SSE 5 7 30.05 1018 10 16 0.00 0.00
4:53 pm 16:53 Partly Cloudy 85 29.4 58 14.4 40 40 Calm 30.05 1018 10 16 0.00 0.00
5:53 pm 17:53 Sunny 80 26.7 67 19.4 64 64 S 9 15 30.03 1017 10 16 0.00 0.00
6:53 pm 18:53 Sunny 78 25.6 68 20 71 71 S 8 13 30.03 1017 10 16 0.00 0.00
7:53 pm 19:53 Sunny 76 24.4 66 18.9 72 72 SW 6 9 30.04 1017 10 16 0.00 0.00
8:53 pm 20:53 Clear 73 22.8 66 18.9 79 79 Calm 30.07 1018 10 16 0.00 0.00
9:53 pm 21:53 Clear 69 20.6 65 18.3 87 87 W 6 9 30.11 1020 10 16 0.00 0.00
10:53 pm 22:53 Clear 70 21.1 59 15 68 68 NE 8 13 30.11 1020 10 16 0.00 0.00
11:53 pm 23:53 Clear 67 19.4 58 14.4 73 73 ESE 6 9 30.09 1019 10 16 0.00 0.00

Powered by AerisWeather